User: anonymous   Login
Location: Arthez
(43.0833°N, 0.2500°W)
Time: 09:59:06
(UTC+00:00)
Language:

PSLV DEB - Orbit

View from above orbital plane
View from above orbital plane
View from above satellite
View from above satellite

Ground track
Ground track

The orbit data is extracted from the following two-line orbital elements,

1 28859U 01049PM  22228.37905149  .00013074  00000-0  56657-3 0  9997
2 28859  97.6199 266.7291 0013539 235.1105 124.8858 15.22436839507737
Epoch (UTC): 16 August 2022 09:05:50
Eccentricity: 0.0013539
inclination: 97.6199°
perigee height: 489 km
apogee height: 508 km
right ascension of ascending node: 266.7291°
argument of perigee: 235.1105°
revolutions per day: 15.22436839
mean anomaly at epoch: 124.8858°
orbit number at epoch: 50773

The dashed part of the orbit path shows where the satellite is in the earth's shadow,  

DLR